Flag for USA

Past Weather in Houston Tower Site State Wildlife Area, Missouri, USA — Yesterday and Last 2 Weeks

Now
63 °F

Clear.


Feels Like: 63 °F
Forecast: 75 / 50 °F
Wind: 5 mph from Southeast

Location: Waynesville Regional Airport
Current Time: Sep 23, 2020 at 9:55:19 pm
Latest Report: Sep 23, 2020 at 8:56 pm
Visibility: 10 mi
Pressure30.01 "Hg
Humidity: 72%
Dew Point: 54 °F
Location of Houston Tower Site State Wildlife AreaLocation

Past Weather in Houston Tower Site State Wildlife Area — Graph

°F

Houston Tower Site State Wildlife Area Temperature Yesterday

Maximum temperature yesterday: 73 °F (at 1:16 pm)
Minimum temperature yesterday: 58 °F (at 2:56 am)
Average temperature yesterday: 65 °F

High & Low Weather Summary for the Past Weeks

 TemperatureHumidityPressure
High86 °F (Sep 9, 2:56 pm)100% (Sep 8, 11:56 pm)30.33 "Hg (Sep 8, 11:56 pm)
Low44 °F (Sep 20, 5:56 am)40% (Sep 20, 2:56 pm)29.94 "Hg (Sep 12, 4:56 pm)
Average66 °F79%30.14 "Hg
* Reported Sep 8 7:56 pm — Sep 23 7:56 pm, Houston Tower Site State Wildlife Area. Weather by CustomWeather, © 2020

Note: Actual official high and low records may vary slightly from our data, if they occured in-between our weather recording intervals... More about our weather records

Houston Tower Site State Wildlife Area Weather History for the Previous 24 Hours

Scroll right to see more
 ConditionsComfort  
Time TempWeatherWind HumidityBarometerVisibility
7:56 pm
Wed, Sep 23
62 °FClear.No wind74%29.99 "Hg10 mi
6:56 pm68 °FSunny.No wind60%30.00 "Hg10 mi
5:56 pm73 °FSunny.5 mph52%30.00 "Hg10 mi
4:56 pm74 °FSunny.3 mph48%30.00 "Hg10 mi
3:56 pm74 °FSunny.3 mph43%30.01 "Hg10 mi
2:56 pm71 °FSunny.No wind58%30.03 "Hg10 mi
1:56 pm70 °FPassing clouds.No wind58%30.05 "Hg10 mi
12:56 pm69 °FScattered clouds.3 mph55%30.07 "Hg10 mi
11:56 am67 °FScattered clouds.5 mph70%30.09 "Hg10 mi
10:56 am63 °FOvercast.3 mph78%30.11 "Hg10 mi
9:56 am61 °FOvercast.6 mph85%30.11 "Hg10 mi
8:56 am59 °FPartly sunny.No wind93%30.10 "Hg10 mi
7:56 am58 °FScattered clouds.No wind96%30.09 "Hg10 mi
6:56 am57 °FPassing clouds.5 mph98%30.08 "Hg10 mi
5:56 am58 °FPassing clouds.5 mph95%30.08 "Hg10 mi
4:56 am58 °FPassing clouds.3 mph97%30.06 "Hg10 mi
3:56 am58 °FPassing clouds.3 mph96%30.07 "Hg10 mi
2:56 am59 °FPassing clouds.5 mph97%30.09 "Hg10 mi
1:56 am60 °FPassing clouds.3 mph94%30.09 "Hg10 mi
12:56 am60 °FPassing clouds.5 mph94%30.11 "Hg10 mi
11:56 pm
Tue, Sep 22
62 °FClear.8 mph91%30.11 "Hg10 mi
10:56 pm63 °FPassing clouds.6 mph87%30.11 "Hg10 mi
9:56 pm65 °FPartly cloudy.6 mph84%30.11 "Hg10 mi
Weather by CustomWeather, © 2020

See weather overview